Location: Wildcat Hills Observatory
(41.6350°N, 103.6812°W)
Time: 01:59:30
(UTC-06:00)

Cosmos 1634 Rocket - Visible Passes

Search period start: 28 May 2016 00:00
Search period end: 07 June 2016 00:00
Orbit: 959 x 993 km, 82.9° (Epoch: 27 May)

Date Brightness Start Highest point End Pass type
(mag) Time Alt. Az. Time Alt. Az. Time Alt. Az.
28 May 5.3 20:50:15 10° NNE 20:55:06 23° ENE 20:59:56 10° ESE visible
28 May 4.6 22:34:51 10° NNW 22:40:49 53° W 22:45:07 19° SSW visible
29 May 4.5 21:15:10 10° N 21:21:00 42° ENE 21:26:12 13° SE visible
29 May 5.5 23:00:58 10° NNW 23:06:09 29° W 23:10:53 12° SW visible
30 May 4.0 21:40:30 10° N 21:46:42 75° E 21:52:00 15° SSE visible
30 May 6.3 23:27:49 10° NW 23:31:18 16° W 23:34:47 10° WSW visible
31 May 4.4 22:06:08 10° NNW 22:12:13 61° W 22:17:50 12° S visible
01 Jun 4.7 20:46:39 10° N 20:52:18 36° ENE 20:57:56 10° SE visible
01 Jun 5.4 22:32:09 10° NNW 22:37:35 34° W 22:43:02 10° SSW visible
02 Jun 4.1 21:11:53 10° N 21:18:02 65° E 21:24:12 10° SSE visible
02 Jun 6.2 22:58:44 10° NW 23:02:47 18° W 23:06:50 10° WSW visible
03 Jun 4.2 21:37:27 10° NNW 21:43:37 71° W 21:49:47 10° S visible
04 Jun 5.2 22:03:21 10° NNW 22:09:01 39° W 22:14:42 10° SSW visible
05 Jun 6.1 22:29:45 10° NW 22:34:15 22° W 22:38:46 10° SW visible
06 Jun 4.1 21:08:47 10° N 21:15:00 82° W 21:21:13 10° S visible
06 Jun 6.6 22:57:45 10° WNW 22:59:20 11° WNW 23:00:54 10° W visible
